User: anonymous
Location: Sewell
(39.7660°N, 75.1450°W)
Time: 05:06:54
(UTC-04:00)
Language:

ISS - Orbit

View from above orbital plane
View from above orbital plane
View from above satellite
View from above satellite

Ground track
Ground track

The orbit data is extracted from the following two-line orbital elements,

1 25544U 98067A   14110.23319171  .00029696  00000-0  52498-3 0  1180
2 25544 051.6497 026.7995 0003611 311.4863 208.5438 15.50070655882337
Epoch (UTC): 20 April 2014 05:35:47
Eccentricity: 0.0003611
inclination: 51.6497°
perigee height: 414 km
apogee height: 419 km
right ascension of ascending node: 26.7995°
argument of perigee: 311.4863°
revolutions per day: 15.50070655
mean anomaly at epoch: 208.5438°
orbit number at epoch: 88233

The dashed part of the orbit path shows where the satellite is in the earth's shadow,  

DLR